This is the latest recevied weather packets stored in our database for station/object W1RCP. If no packets are shown the sender has not sent any weather packets the latest 10 day(s).
| Time | Temp. | Humidity | Pressure | Rain* | Wind** | Luminosity | Snow |
|---|---|---|---|---|---|---|---|
| 1778187690 | 24.44° C | 80% | 1023.5 hPa | 0 mm | - | 292 W/m² | - |
| 1778187386 | 24.44° C | 81% | 1023.4 hPa | 0 mm | - | 331 W/m² | - |
| 1778187083 | 24.44° C | 81% | 1023.5 hPa | 0 mm | - | 177 W/m² | - |
| 1778186779 | 24.44° C | 82% | 1023.4 hPa | 0 mm | - | 173 W/m² | - |
| 1778186477 | 24.44° C | 81% | 1023.5 hPa | 0 mm | - | 119 W/m² | - |
| 1778186175 | 24.44° C | 80% | 1023.7 hPa | 0 mm | - | 74 W/m² | - |
| 1778185872 | 25° C | 79% | 1023.4 hPa | 0 mm | - | 226 W/m² | - |
| 1778185567 | 25° C | 80% | 1023.3 hPa | 0 mm | - | 395 W/m² | - |
| 1778185264 | 25.56° C | 78% | 1023.6 hPa | 0 mm | - | 245 W/m² | - |
| 1778184959 | 25° C | 81% | 1023.6 hPa | 0 mm | - | 899 W/m² | - |
| 1778184656 | 24.44° C | 81% | 1023.6 hPa | 0 mm | - | 628 W/m² | - |
| 1778184351 | 23.89° C | 82% | 1023.6 hPa | 0 mm | - | 341 W/m² | - |
| 1778184048 | 23.89° C | 82% | 1023.4 hPa | 0 mm | - | 257 W/m² | - |
| 1778183745 | 23.89° C | 82% | 1023.7 hPa | 0 mm | - | 263 W/m² | - |
| 1778183443 | 23.89° C | 83% | 1023.8 hPa | 0 mm | - | 267 W/m² | - |
| 1778183138 | 23.89° C | 83% | 1023.5 hPa | 0 mm | - | 328 W/m² | - |
| 1778182835 | 23.89° C | 83% | 1023.8 hPa | 0 mm | - | 269 W/m² | - |
| 1778182532 | 23.89° C | 85% | 1023.8 hPa | 0 mm | - | 236 W/m² | - |
| 1778182229 | 23.89° C | 86% | 1024 hPa | 0 mm | - | 233 W/m² | - |
| 1778181925 | 23.89° C | 86% | 1024 hPa | 0 mm | - | 228 W/m² | - |
| 1778181622 | 23.89° C | 88% | 1024.2 hPa | 0 mm | - | 249 W/m² | - |
| 1778181317 | 23.33° C | 89% | 1024 hPa | 0 mm | - | 320 W/m² | - |
| 1778181015 | 23.33° C | 90% | 1024.3 hPa | 0 mm | - | 176 W/m² | - |
| 1778180712 | 23.33° C | 89% | 1024.1 hPa | 0 mm | - | 278 W/m² | - |
| 1778180411 | 23.33° C | 91% | 1024.2 hPa | 0 mm | - | 482 W/m² | - |
* Rain latest hour (hover to see other rain measurements)
** Current wind speed in m/s (hover to see current wind gust speed)